[Date Prev][Date Next][Thread Prev][Thread Next] - [Date Index][Thread Index][Author Index]
2 Line ISS 4-24 - updates 20 sec's
- Subject: [sarex] 2 Line ISS 4-24 - updates 20 sec's
- From: "Dr Dave Larsen [ PhD ]" <doc@xxxxxxxxxxx>
- Date: Tue, 24 Apr 2001 13:43:33 -0700
ISS
1 25544U 98067A 01114.81781943 .00041234 00000-0 48813-3 0 9023
2 25544 51.5712 357.6059 0012516 325.0788 121.7675 15.60743651138746
----
Via the sarex mailing list at AMSAT.ORG courtesy of AMSAT-NA.
To unsubscribe, send "unsubscribe sarex" to Majordomo@amsat.org
AMSAT Home